[[{"header":{"parameterUnit":"m.s-1","parameterCategory":1,"la1":30.2992,"la2":30.254,"lo1":-89.0895,"lo2":-89.0443,"dy":0.0025,"dx":0.0025,"nx":19,"ny":19,"refTime":"2026-05-17T09:00:00:Z","depth":0,"parameterNumber":2,"parameterNumberName":"U-component_of_WINDS"},"data":[0,0,0,-1.9585,-1.9587,-1.9671,-1.9671,-1.9779,-1.978,0,0,0,0,0,0,0,0,0,0,0,-1.9561,-1.9561,-1.9585,-1.9587,-1.9671,-1.9671,-1.9779,-1.978,0,0,0,0,0,0,0,0,0,0,0,-1.956,-1.9561,-1.9562,-1.9587,-1.9671,-1.9671,-1.9779,-1.9715,0,0,0,0,0,0,0,0,0,0,-1.9634,-1.9612,-1.9561,-1.9562,-1.9588,-1.967,-1.9671,-1.9712,-1.9719,-1.9742,0,-1.9762,0,-1.9773,-1.9788,-1.9788,0,0,0,-1.9587,-1.9606,-1.9628,-1.9562,-1.9588,-1.967,-1.9633,-1.9716,-1.9724,-1.9751,-1.9763,-1.9767,-1.9775,-1.9788,-1.9789,-1.9919,-1.992,0,0,-1.9582,-1.9576,-1.9622,-1.9633,-1.962,-1.963,-1.9635,-1.9721,-1.9734,-1.9764,-1.977,-1.9776,-1.9789,-1.979,-1.9919,-1.9919,0,0,0,-1.9569,-1.9573,-1.9593,-1.9629,-1.9644,-1.9632,-1.9639,-1.973,-1.9737,-1.9771,-1.9778,-1.979,-1.9791,-1.9918,-1.9919,-1.9944,0,0,0,-1.9566,-1.9565,-1.9591,-1.9588,-1.9642,-1.9688,-1.9646,-1.9731,-1.9741,-1.9777,-1.979,-1.9792,-1.9917,-1.9919,-1.9942,-1.9957,0,0,0,-1.9555,-1.9564,-1.9576,-1.9588,-1.9623,-1.9687,-1.9699,-1.9734,-1.9745,-1.9788,-1.9793,-1.9917,-1.9918,-1.994,-1.9954,-1.9989,0,0,0,-1.9542,-1.9598,-1.9576,-1.9642,-1.9623,-1.9701,-1.9698,-1.9757,-1.9797,-1.979,-1.9917,-1.9919,-1.9939,-1.9952,-1.9987,-2.0018,-2.003,0,0,-1.9609,-1.9605,-1.9644,-1.9628,-1.9709,-1.9689,-1.9774,-1.9816,-1.9826,-1.9888,-1.9891,-1.9942,-1.9953,-1.9989,-2.0101,-2.0111,0,0,0,-1.9664,-1.9691,-1.9714,-1.9751,-1.9785,-1.9815,-1.9844,-1.986,-1.9912,-1.9856,-1.9965,-1.9972,-1.9993,-2.0008,-2.0016,-2.0034,-1.9926,-1.9925,-1.9925,-1.9751,-1.976,-1.9824,-1.9843,-1.9879,-1.9909,-1.994,-1.9966,-1.9965,-1.999,-2.0008,-2.0076,-2.0093,-2.0099,-2.0118,-2.0025,-2.0026,-2.0026,-2.0026,-1.9851,-1.9891,-1.9887,-1.9949,-1.9958,-2.0009,-2.004,-2.0037,-2.0087,-2.0063,-2.0082,-2.0054,-2.011,-2.0127,-2.0028,-2.0027,-2.0027,-2.0027,-2.0027,-1.9909,-1.993,-1.9947,-2.0002,-2.0043,-2.006,-2.0108,-2.0114,-2.0121,-2.014,-2.016,-2.0159,-2.016,-2.0149,-2.0149,-2.0149,-2.0149,-2.015,-2.015,-1.9962,-1.9981,-2.002,-2.006,-2.0084,-2.0118,-2.0148,-2.0172,-2.0201,-2.0202,-2.0203,-2.0199,-2.0113,-2.0092,-2.0153,-2.0153,-2.0152,-2.0152,-2.0152,-2.006,-2.0039,-2.0099,-2.0124,-2.017,-2.0211,-2.0218,-2.0267,-2.0289,-2.0312,-2.0304,-2.024,-2.0237,-2.023,-2.0212,-2.0302,-2.0302,-2.0302,-2.0302,-2.011,-2.0108,-2.0171,-2.021,-2.0249,-2.0261,-2.0329,-2.0353,-2.0374,-2.0388,-2.0376,-2.0353,-2.0346,-2.0347,-2.0338,-2.0321,-2.0437,-2.0437,-2.0437,-2.017,-2.0173,-2.023,-2.0249,-2.0286,-2.0318,-2.0382,-2.0426,-2.0446,-2.0442,-2.0399,-2.0393,-2.0356,-2.0343,-2.0339,-2.0324,-2.0294,0,0]},{"header":{"parameterUnit":"m.s-1","parameterCategory":1,"la1":30.2992,"la2":30.254,"lo1":-89.0895,"lo2":-89.0443,"dy":0.0025,"dx":0.0025,"nx":19,"ny":19,"refTime":"2026-05-17T09:00:00:Z","depth":0,"parameterNumber":3,"parameterNumberName":"V-component_of_WINDS"},"data":[0,0,0,4.2943,4.2943,4.2968,4.2968,4.3023,4.3023,0,0,0,0,0,0,0,0,0,0,0,4.295,4.2951,4.2942,4.2943,4.2968,4.2968,4.3022,4.3023,0,0,0,0,0,0,0,0,0,0,0,4.295,4.2951,4.2952,4.2944,4.2968,4.2968,4.3022,4.2995,0,0,0,0,0,0,0,0,0,0,4.2967,4.2989,4.295,4.2952,4.2944,4.2968,4.2968,4.2994,4.2997,4.3021,0,4.3048,0,4.3037,4.3028,4.3029,0,0,0,4.2932,4.2986,4.298,4.2952,4.2944,4.2968,4.2954,4.2995,4.2999,4.3026,4.3048,4.305,4.3037,4.3029,4.3029,4.3207,4.3208,0,0,4.2931,4.2962,4.2977,4.2983,4.2981,4.2953,4.2955,4.2997,4.3023,4.3048,4.3051,4.3038,4.3029,4.303,4.3206,4.3207,0,0,0,4.2935,4.2962,4.2953,4.2981,4.2984,4.2954,4.2956,4.3021,4.3016,4.3051,4.3039,4.303,4.3031,4.3204,4.3206,4.3302,0,0,0,4.2933,4.2964,4.2954,4.2973,4.2984,4.3003,4.298,4.3013,4.3017,4.3039,4.303,4.3032,4.3203,4.3205,4.3296,4.3341,0,0,0,4.2943,4.2965,4.2974,4.2975,4.2986,4.3002,4.2998,4.3013,4.301,4.3029,4.3032,4.3202,4.3205,4.329,4.3332,4.3395,0,0,0,4.2963,4.306,4.2976,4.3079,4.2987,4.3061,4.2998,4.3052,4.308,4.303,4.3203,4.3206,4.3289,4.3327,4.339,4.3452,4.3482,0,0,4.3102,4.3078,4.3136,4.3061,4.3159,4.3055,4.3166,4.3162,4.3136,4.3184,4.3188,4.3298,4.3332,4.3394,4.3639,4.3663,0,0,0,4.319,4.3232,4.3251,4.3278,4.3277,4.3279,4.3254,4.3252,4.3292,4.3167,4.3337,4.3357,4.3392,4.342,4.344,4.3467,4.3221,4.3221,4.322,4.3432,4.3392,4.3484,4.3446,4.3474,4.3446,4.3464,4.3456,4.3409,4.345,4.3463,4.3617,4.3652,4.3667,4.3695,4.3495,4.3495,4.3496,4.3496,4.363,4.3682,4.3615,4.368,4.3637,4.3691,4.3668,4.3633,4.3676,4.3604,4.3633,4.3556,4.3694,4.3717,4.3503,4.3501,4.3501,4.35,4.3499,4.3783,4.38,4.3795,4.3828,4.3859,4.3817,4.3861,4.3821,4.3783,4.3812,4.382,4.3819,4.381,4.3819,4.382,4.382,4.3821,4.3821,4.3821,4.3941,4.3933,4.3975,4.398,4.399,4.3999,4.3972,4.3981,4.3981,4.3948,4.3948,4.3895,4.3716,4.367,4.3829,4.3828,4.3827,4.3826,4.3826,4.4154,4.4099,4.4164,4.4174,4.4175,4.4206,4.4154,4.4176,4.4178,4.4201,4.4142,4.4016,4.3988,4.3972,4.3933,4.4152,4.4152,4.4152,4.4152,4.4281,4.4263,4.4318,4.4337,4.4351,4.431,4.4382,4.4361,4.4331,4.4329,4.4292,4.4239,4.4224,4.4205,4.4183,4.4147,4.4414,4.4414,4.4415,4.4408,4.4389,4.4459,4.4428,4.4425,4.4423,4.449,4.4514,4.4468,4.4424,4.4327,4.4316,4.4229,4.4203,4.4156,4.4124,4.4056,0,0]}]]